カタログに戻る

COSMOS 1961

運用中軍事GEO
NORAD 19344·PAYLOAD·🇷🇺 Russia

打ち上げ Aug 1, 1988 から Baikonur Cosmodrome

Loading…

TLE

最新Source: Space-Track

元期: Sep 14, 2026, 17:35 UTC

1 19344U 88066A   26257.73272074 -.00000117  00000-0  00000-0 0  9993
2 19344  11.3561 329.1442 0003807 184.3036 180.0527  1.00260421139910

AllMySatでCOSMOS 1961をリアルタイム追跡

Download on the App Store